Weather Roundup
Issued by NWS

Home | Current Version | Previous Version | Text Only | Print | Product List | Glossary On
Versions: 1 2 3 4 5 6 7 8 9 10 11 12 13 14 15 16 17 18 19 20 21 22 23 24 25 26 27 28 29 30 31 32 33 34 35 36 37 38 39 40 41 42 43 44 45 46 47 48 49 50
000
NZUS93 KARX 192110
HRRWXR

CURRENT HOURLY OBSERVATIONS ACROSS
MUCH OF THE UPPER MISSISSIPPI VALLEY
NATIONAL WEATHER SERVICE LA CROSSE WI
300 PM CST FRI DEC 19 2014


...SOUTHEAST MINNESOTA...


CITY           SKY/WX    TMP DP  RH WIND       PRES   REMARKS
ROCHESTER      CLOUDY    28  21  75 S9        30.20S WCI  19
ROCHESTER/MAYO CLOUDY    28  20  71 SE7       30.20F WCI  21
WINONA         CLOUDY    32  21  64 SE3       30.25S
AUSTIN         CLOUDY    28  25  86 SE6       30.19S FOG     WCI  22
ALBERT LEA     CLOUDY    28  28 100 S9        30.18S FOG     WCI  20
DODGE CENTER   CLOUDY    28  27  93 S9        30.18S FOG     WCI  20
PRESTON        CLOUDY    27  21  79 S7        30.21S WCI  19
OWATONNA       MOSUNNY   28  25  86 SE8       30.18S FOG     WCI  20
FARIBAULT      CLOUDY    30  27  86 SE8       30.18F FOG     WCI  23
$$

...ELSEWHERE IN MINNESOTA...


CITY           SKY/WX    TMP DP  RH WIND       PRES   REMARKS
MINNEAPOLIS    CLOUDY    28  23  81 SE10      30.19F WCI  19
INTNL FALLS    CLOUDY    25  18  74 S6        30.11S WCI  18
DULUTH         FLURRIES  24  19  81 SE8       30.15F WCI  15
RED WING       CLOUDY    28  21  74 SE6       30.21F WCI  22
REDWOOD FALLS  CLOUDY    33  29  85 S13       30.11F FOG     WCI  24
MANKATO        CLOUDY    30  25  80 S9        30.16S WCI  22
WORTHINGTON    CLOUDY    30  27  86 S17       30.10F WCI  18
FAIRMONT       CLOUDY    32  25  74 S13       30.14F WCI  22
$$

...SOUTHWEST WISCONSIN...


CITY           SKY/WX    TMP DP  RH WIND       PRES   REMARKS
LA CROSSE      CLOUDY    30  20  66 S6        30.25F WCI  24
PRAIRIE DU CHI CLOUDY    29  20  68 SE3       30.27R
BOSCOBEL       CLOUDY    31  19  61 CALM      30.27S
LONE ROCK      CLOUDY    32  18  56 CALM      30.27S
PLATTEVILLE    CLOUDY    28  21  73 CALM      30.26R
FORT MC COY    CLOUDY    29  19  66 CALM      30.26S
CAMP DOUGLAS   CLOUDY    26  24  91 E1        30.25F
VIROQUA        CLOUDY    28  21  74 S3        30.22S
WIS DELLS      CLOUDY    25  20  83 CALM      30.26R
$$

...ELSEWHERE IN WISCONSIN...


CITY           SKY/WX    TMP DP  RH WIND       PRES   REMARKS
MILWAUKEE      PTSUNNY   31  18  58 CALM      30.25F
MADISON        CLOUDY    26  20  77 CALM      30.26S
GREEN BAY      PTCLDY    30  22  72 VRB3      30.27S
EAU CLAIRE     CLOUDY    27  19  72 SE6       30.23S WCI  20
BLACK RVR FLS  CLOUDY    29  19  64 CALM      30.24S
MEDFORD        CLOUDY    22  20  92 S7        30.22R WCI  13
WAUSAU         CLOUDY    26  17  68 SW6       30.22S WCI  19
WIS RAPIDS     CLOUDY    25  18  74 W7        30.27S WCI  17
MARSHFIELD     CLOUDY    24  20  84 S7        30.23F WCI  16
RICE LAKE      CLOUDY    27  21  79 SE8       30.22F WCI  18
$$

...NORTHEAST IOWA...


CITY           SKY/WX    TMP DP  RH WIND       PRES   REMARKS
DECORAH        CLOUDY    28  19  69 VRB5      30.22S WCI  23
MASON CITY     CLOUDY    30  26  85 SE10      30.21S FOG     WCI  21
CHARLES CITY   CLOUDY    30  25  80 SE7       30.22S WCI  23
OELWEIN        CLOUDY    28  21  74 S8        30.25R WCI  20
$$

...ELSEWHERE IN IOWA...


CITY           SKY/WX    TMP DP  RH WIND       PRES   REMARKS
DES MOINES     CLOUDY    33  27  78 SE7       30.22F WCI  27
IOWA CITY      CLOUDY    30  21  69 S7        30.30R WCI  23
FORT DODGE     CLOUDY    32  27  80 S8        30.19S WCI  25
$$

...NORTHERN ILLINOIS...


CITY           SKY/WX    TMP DP  RH WIND       PRES   REMARKS
CHICAGO-OHARE  CLOUDY    31  21  66 CALM      30.26R
CHICAGO-MIDWAY CLOUDY    33  22  63 CALM      30.27R
MOLINE         CLOUDY    32  18  56 CALM      30.30R
ROCKFORD       CLOUDY    28  21  75 SW3       30.29R
PEORIA         PTSUNNY   35  20  54 W5        30.32R WCI  31
$$

NOTE: "FAIR" INDICATES FEW OR NO CLOUDS BELOW 12,000 FEET WITH NO
SIGNIFICANT WEATHER AND/OR OBSTRUCTIONS TO VISIBILITY. WIND
SPEEDS ARE IN MILES-PER-HOUR.



USA.gov is the U.S. government's official web portal to all federal, state and local government web resources and services.